Index of /20260411/WXO-DD/model_gdps/15km/12/105
Name Last modified Size Description
Parent Directory -
20260411T12Z_MSC_GDPS_AbsoluteVorticity_IsbL-0200_LatLon0.15_PT105H.grib2 2026-04-11 16:45 1.2M
20260411T12Z_MSC_GDPS_AbsoluteVorticity_IsbL-0250_LatLon0.15_PT105H.grib2 2026-04-11 16:45 1.3M
20260411T12Z_MSC_GDPS_AbsoluteVorticity_IsbL-0500_LatLon0.15_PT105H.grib2 2026-04-11 16:45 1.2M
20260411T12Z_MSC_GDPS_AbsoluteVorticity_IsbL-0700_LatLon0.15_PT105H.grib2 2026-04-11 16:45 1.3M
20260411T12Z_MSC_GDPS_AbsoluteVorticity_IsbL-0850_LatLon0.15_PT105H.grib2 2026-04-11 16:45 1.6M
20260411T12Z_MSC_GDPS_AirTemp_AGL-120m_LatLon0.15_PT105H.grib2 2026-04-11 16:45 919K
20260411T12Z_MSC_GDPS_AirTemp_AGL-2m_LatLon0.15_PT105H.grib2 2026-04-11 16:45 1.0M
20260411T12Z_MSC_GDPS_AirTemp_AGL-40m_LatLon0.15_PT105H.grib2 2026-04-11 16:45 943K
20260411T12Z_MSC_GDPS_AirTemp_AGL-80m_LatLon0.15_PT105H.grib2 2026-04-11 16:45 930K
20260411T12Z_MSC_GDPS_AirTemp_IsbL-0001_LatLon0.15_PT105H.grib2 2026-04-11 16:45 700K
20260411T12Z_MSC_GDPS_AirTemp_IsbL-0005_LatLon0.15_PT105H.grib2 2026-04-11 16:45 682K
20260411T12Z_MSC_GDPS_AirTemp_IsbL-0010_LatLon0.15_PT105H.grib2 2026-04-11 16:45 754K
20260411T12Z_MSC_GDPS_AirTemp_IsbL-0020_LatLon0.15_PT105H.grib2 2026-04-11 16:45 701K
20260411T12Z_MSC_GDPS_AirTemp_IsbL-0030_LatLon0.15_PT105H.grib2 2026-04-11 16:45 752K
20260411T12Z_MSC_GDPS_AirTemp_IsbL-0050_LatLon0.15_PT105H.grib2 2026-04-11 16:45 816K
20260411T12Z_MSC_GDPS_AirTemp_IsbL-0100_LatLon0.15_PT105H.grib2 2026-04-11 16:45 955K
20260411T12Z_MSC_GDPS_AirTemp_IsbL-0150_LatLon0.15_PT105H.grib2 2026-04-11 16:45 1.0M
20260411T12Z_MSC_GDPS_AirTemp_IsbL-0175_LatLon0.15_PT105H.grib2 2026-04-11 16:45 952K
20260411T12Z_MSC_GDPS_AirTemp_IsbL-0200_LatLon0.15_PT105H.grib2 2026-04-11 16:45 965K
20260411T12Z_MSC_GDPS_AirTemp_IsbL-0225_LatLon0.15_PT105H.grib2 2026-04-11 16:45 970K
20260411T12Z_MSC_GDPS_AirTemp_IsbL-0250_LatLon0.15_PT105H.grib2 2026-04-11 16:45 1.0M
20260411T12Z_MSC_GDPS_AirTemp_IsbL-0275_LatLon0.15_PT105H.grib2 2026-04-11 16:45 941K
20260411T12Z_MSC_GDPS_AirTemp_IsbL-0300_LatLon0.15_PT105H.grib2 2026-04-11 16:45 950K
20260411T12Z_MSC_GDPS_AirTemp_IsbL-0350_LatLon0.15_PT105H.grib2 2026-04-11 16:45 927K
20260411T12Z_MSC_GDPS_AirTemp_IsbL-0400_LatLon0.15_PT105H.grib2 2026-04-11 16:45 939K
20260411T12Z_MSC_GDPS_AirTemp_IsbL-0450_LatLon0.15_PT105H.grib2 2026-04-11 16:45 961K
20260411T12Z_MSC_GDPS_AirTemp_IsbL-0500_LatLon0.15_PT105H.grib2 2026-04-11 16:45 1.0M
20260411T12Z_MSC_GDPS_AirTemp_IsbL-0550_LatLon0.15_PT105H.grib2 2026-04-11 16:45 797K
20260411T12Z_MSC_GDPS_AirTemp_IsbL-0600_LatLon0.15_PT105H.grib2 2026-04-11 16:45 891K
20260411T12Z_MSC_GDPS_AirTemp_IsbL-0650_LatLon0.15_PT105H.grib2 2026-04-11 16:45 919K
20260411T12Z_MSC_GDPS_AirTemp_IsbL-0700_LatLon0.15_PT105H.grib2 2026-04-11 16:45 956K
20260411T12Z_MSC_GDPS_AirTemp_IsbL-0750_LatLon0.15_PT105H.grib2 2026-04-11 16:45 1.0M
20260411T12Z_MSC_GDPS_AirTemp_IsbL-0800_LatLon0.15_PT105H.grib2 2026-04-11 16:45 1.1M
20260411T12Z_MSC_GDPS_AirTemp_IsbL-0850_LatLon0.15_PT105H.grib2 2026-04-11 16:45 1.1M
20260411T12Z_MSC_GDPS_AirTemp_IsbL-0875_LatLon0.15_PT105H.grib2 2026-04-11 16:45 1.2M
20260411T12Z_MSC_GDPS_AirTemp_IsbL-0900_LatLon0.15_PT105H.grib2 2026-04-11 16:45 1.1M
20260411T12Z_MSC_GDPS_AirTemp_IsbL-0925_LatLon0.15_PT105H.grib2 2026-04-11 16:45 1.1M
20260411T12Z_MSC_GDPS_AirTemp_IsbL-0950_LatLon0.15_PT105H.grib2 2026-04-11 16:45 1.2M
20260411T12Z_MSC_GDPS_AirTemp_IsbL-0970_LatLon0.15_PT105H.grib2 2026-04-11 16:45 1.2M
20260411T12Z_MSC_GDPS_AirTemp_IsbL-0985_LatLon0.15_PT105H.grib2 2026-04-11 16:45 1.1M
20260411T12Z_MSC_GDPS_AirTemp_IsbL-1000_LatLon0.15_PT105H.grib2 2026-04-11 16:45 1.1M
20260411T12Z_MSC_GDPS_AirTemp_IsbL-1015_LatLon0.15_PT105H.grib2 2026-04-11 16:45 1.1M
20260411T12Z_MSC_GDPS_Albedo_Sfc_LatLon0.15_PT105H.grib2 2026-04-11 16:45 244K
20260411T12Z_MSC_GDPS_CAPE_Sfc_LatLon0.15_PT105H.grib2 2026-04-11 16:45 3.8M
20260411T12Z_MSC_GDPS_CIN_Sfc_LatLon0.15_PT105H.grib2 2026-04-11 16:45 2.8M
20260411T12Z_MSC_GDPS_CloudWater_EAtm_LatLon0.15_PT105H.grib2 2026-04-11 16:45 528K
20260411T12Z_MSC_GDPS_ConvectivePrecip-Accum_Sfc_LatLon0.15_PT105H.grib2 2026-04-11 16:45 3.0M
20260411T12Z_MSC_GDPS_DewPointDepression_AGL-2m_LatLon0.15_PT105H.grib2 2026-04-11 16:45 749K
20260411T12Z_MSC_GDPS_DewPointDepression_IsbL-0010_LatLon0.15_PT105H.grib2 2026-04-11 16:45 18K
20260411T12Z_MSC_GDPS_DewPointDepression_IsbL-0020_LatLon0.15_PT105H.grib2 2026-04-11 16:45 48K
20260411T12Z_MSC_GDPS_DewPointDepression_IsbL-0030_LatLon0.15_PT105H.grib2 2026-04-11 16:45 70K
20260411T12Z_MSC_GDPS_DewPointDepression_IsbL-0050_LatLon0.15_PT105H.grib2 2026-04-11 16:45 359K
20260411T12Z_MSC_GDPS_DewPointDepression_IsbL-0100_LatLon0.15_PT105H.grib2 2026-04-11 16:45 377K
20260411T12Z_MSC_GDPS_DewPointDepression_IsbL-0150_LatLon0.15_PT105H.grib2 2026-04-11 16:45 454K
20260411T12Z_MSC_GDPS_DewPointDepression_IsbL-0175_LatLon0.15_PT105H.grib2 2026-04-11 16:45 536K
20260411T12Z_MSC_GDPS_DewPointDepression_IsbL-0200_LatLon0.15_PT105H.grib2 2026-04-11 16:45 635K
20260411T12Z_MSC_GDPS_DewPointDepression_IsbL-0225_LatLon0.15_PT105H.grib2 2026-04-11 16:45 761K
20260411T12Z_MSC_GDPS_DewPointDepression_IsbL-0250_LatLon0.15_PT105H.grib2 2026-04-11 16:45 866K
20260411T12Z_MSC_GDPS_DewPointDepression_IsbL-0275_LatLon0.15_PT105H.grib2 2026-04-11 16:45 894K
20260411T12Z_MSC_GDPS_DewPointDepression_IsbL-0300_LatLon0.15_PT105H.grib2 2026-04-11 16:45 934K
20260411T12Z_MSC_GDPS_DewPointDepression_IsbL-0350_LatLon0.15_PT105H.grib2 2026-04-11 16:45 965K
20260411T12Z_MSC_GDPS_DewPointDepression_IsbL-0400_LatLon0.15_PT105H.grib2 2026-04-11 16:45 1.0M
20260411T12Z_MSC_GDPS_DewPointDepression_IsbL-0450_LatLon0.15_PT105H.grib2 2026-04-11 16:45 1.0M
20260411T12Z_MSC_GDPS_DewPointDepression_IsbL-0500_LatLon0.15_PT105H.grib2 2026-04-11 16:45 1.0M
20260411T12Z_MSC_GDPS_DewPointDepression_IsbL-0550_LatLon0.15_PT105H.grib2 2026-04-11 16:45 1.0M
20260411T12Z_MSC_GDPS_DewPointDepression_IsbL-0600_LatLon0.15_PT105H.grib2 2026-04-11 16:45 1.1M
20260411T12Z_MSC_GDPS_DewPointDepression_IsbL-0650_LatLon0.15_PT105H.grib2 2026-04-11 16:45 1.1M
20260411T12Z_MSC_GDPS_DewPointDepression_IsbL-0700_LatLon0.15_PT105H.grib2 2026-04-11 16:45 1.1M
20260411T12Z_MSC_GDPS_DewPointDepression_IsbL-0750_LatLon0.15_PT105H.grib2 2026-04-11 16:45 1.1M
20260411T12Z_MSC_GDPS_DewPointDepression_IsbL-0800_LatLon0.15_PT105H.grib2 2026-04-11 16:45 1.2M
20260411T12Z_MSC_GDPS_DewPointDepression_IsbL-0850_LatLon0.15_PT105H.grib2 2026-04-11 16:45 1.1M
20260411T12Z_MSC_GDPS_DewPointDepression_IsbL-0875_LatLon0.15_PT105H.grib2 2026-04-11 16:45 1.1M
20260411T12Z_MSC_GDPS_DewPointDepression_IsbL-0900_LatLon0.15_PT105H.grib2 2026-04-11 16:45 1.1M
20260411T12Z_MSC_GDPS_DewPointDepression_IsbL-0925_LatLon0.15_PT105H.grib2 2026-04-11 16:45 1.0M
20260411T12Z_MSC_GDPS_DewPointDepression_IsbL-0950_LatLon0.15_PT105H.grib2 2026-04-11 16:45 1.0M
20260411T12Z_MSC_GDPS_DewPointDepression_IsbL-0970_LatLon0.15_PT105H.grib2 2026-04-11 16:45 1.0M
20260411T12Z_MSC_GDPS_DewPointDepression_IsbL-0985_LatLon0.15_PT105H.grib2 2026-04-11 16:45 1.0M
20260411T12Z_MSC_GDPS_DewPointDepression_IsbL-1000_LatLon0.15_PT105H.grib2 2026-04-11 16:45 973K
20260411T12Z_MSC_GDPS_DewPointDepression_IsbL-1015_LatLon0.15_PT105H.grib2 2026-04-11 16:45 917K
20260411T12Z_MSC_GDPS_DewPoint_AGL-2m_LatLon0.15_PT105H.grib2 2026-04-11 16:45 614K
20260411T12Z_MSC_GDPS_DownwardLongwaveRadiationFlux-Accum_Sfc_LatLon0.15_PT105H.grib2 2026-04-11 16:45 771K
20260411T12Z_MSC_GDPS_DownwardShortwaveRadiationFlux-Accum_NTAtm_LatLon0.15_PT105H.grib2 2026-04-11 16:45 318K
20260411T12Z_MSC_GDPS_DownwardShortwaveRadiationFlux-Accum_Sfc_LatLon0.15_PT105H.grib2 2026-04-11 16:45 1.0M
20260411T12Z_MSC_GDPS_FreezingRain-Accum1h_Sfc_LatLon0.15_PT105H.grib2 2026-04-11 16:45 45K
20260411T12Z_MSC_GDPS_FreezingRain-Accum3h_Sfc_LatLon0.15_PT105H.grib2 2026-04-11 16:45 45K
20260411T12Z_MSC_GDPS_FreezingRain-Accum_Sfc_LatLon0.15_PT105H.grib2 2026-04-11 16:45 236K
20260411T12Z_MSC_GDPS_GeopotentialHeight_IsbL-0001_LatLon0.15_PT105H.grib2 2026-04-11 16:45 538K
20260411T12Z_MSC_GDPS_GeopotentialHeight_IsbL-0005_LatLon0.15_PT105H.grib2 2026-04-11 16:45 497K
20260411T12Z_MSC_GDPS_GeopotentialHeight_IsbL-0010_LatLon0.15_PT105H.grib2 2026-04-11 16:45 433K
20260411T12Z_MSC_GDPS_GeopotentialHeight_IsbL-0020_LatLon0.15_PT105H.grib2 2026-04-11 16:45 580K
20260411T12Z_MSC_GDPS_GeopotentialHeight_IsbL-0030_LatLon0.15_PT105H.grib2 2026-04-11 16:45 582K
20260411T12Z_MSC_GDPS_GeopotentialHeight_IsbL-0050_LatLon0.15_PT105H.grib2 2026-04-11 16:45 514K
20260411T12Z_MSC_GDPS_GeopotentialHeight_IsbL-0100_LatLon0.15_PT105H.grib2 2026-04-11 16:45 614K
20260411T12Z_MSC_GDPS_GeopotentialHeight_IsbL-0150_LatLon0.15_PT105H.grib2 2026-04-11 16:45 628K
20260411T12Z_MSC_GDPS_GeopotentialHeight_IsbL-0175_LatLon0.15_PT105H.grib2 2026-04-11 16:45 631K
20260411T12Z_MSC_GDPS_GeopotentialHeight_IsbL-0200_LatLon0.15_PT105H.grib2 2026-04-11 16:45 633K
20260411T12Z_MSC_GDPS_GeopotentialHeight_IsbL-0225_LatLon0.15_PT105H.grib2 2026-04-11 16:45 630K
20260411T12Z_MSC_GDPS_GeopotentialHeight_IsbL-0250_LatLon0.15_PT105H.grib2 2026-04-11 16:45 639K
20260411T12Z_MSC_GDPS_GeopotentialHeight_IsbL-0275_LatLon0.15_PT105H.grib2 2026-04-11 16:45 637K
20260411T12Z_MSC_GDPS_GeopotentialHeight_IsbL-0300_LatLon0.15_PT105H.grib2 2026-04-11 16:45 636K
20260411T12Z_MSC_GDPS_GeopotentialHeight_IsbL-0350_LatLon0.15_PT105H.grib2 2026-04-11 16:45 624K
20260411T12Z_MSC_GDPS_GeopotentialHeight_IsbL-0400_LatLon0.15_PT105H.grib2 2026-04-11 16:45 615K
20260411T12Z_MSC_GDPS_GeopotentialHeight_IsbL-0450_LatLon0.15_PT105H.grib2 2026-04-11 16:45 537K
20260411T12Z_MSC_GDPS_GeopotentialHeight_IsbL-0500_LatLon0.15_PT105H.grib2 2026-04-11 16:45 528K
20260411T12Z_MSC_GDPS_GeopotentialHeight_IsbL-0550_LatLon0.15_PT105H.grib2 2026-04-11 16:45 688K
20260411T12Z_MSC_GDPS_GeopotentialHeight_IsbL-0600_LatLon0.15_PT105H.grib2 2026-04-11 16:45 680K
20260411T12Z_MSC_GDPS_GeopotentialHeight_IsbL-0650_LatLon0.15_PT105H.grib2 2026-04-11 16:45 680K
20260411T12Z_MSC_GDPS_GeopotentialHeight_IsbL-0700_LatLon0.15_PT105H.grib2 2026-04-11 16:45 683K
20260411T12Z_MSC_GDPS_GeopotentialHeight_IsbL-0750_LatLon0.15_PT105H.grib2 2026-04-11 16:45 685K
20260411T12Z_MSC_GDPS_GeopotentialHeight_IsbL-0800_LatLon0.15_PT105H.grib2 2026-04-11 16:45 699K
20260411T12Z_MSC_GDPS_GeopotentialHeight_IsbL-0850_LatLon0.15_PT105H.grib2 2026-04-11 16:45 706K
20260411T12Z_MSC_GDPS_GeopotentialHeight_IsbL-0875_LatLon0.15_PT105H.grib2 2026-04-11 16:45 713K
20260411T12Z_MSC_GDPS_GeopotentialHeight_IsbL-0900_LatLon0.15_PT105H.grib2 2026-04-11 16:45 723K
20260411T12Z_MSC_GDPS_GeopotentialHeight_IsbL-0925_LatLon0.15_PT105H.grib2 2026-04-11 16:45 731K
20260411T12Z_MSC_GDPS_GeopotentialHeight_IsbL-0950_LatLon0.15_PT105H.grib2 2026-04-11 16:45 741K
20260411T12Z_MSC_GDPS_GeopotentialHeight_IsbL-0970_LatLon0.15_PT105H.grib2 2026-04-11 16:45 752K
20260411T12Z_MSC_GDPS_GeopotentialHeight_IsbL-0985_LatLon0.15_PT105H.grib2 2026-04-11 16:45 767K
20260411T12Z_MSC_GDPS_GeopotentialHeight_IsbL-1000_LatLon0.15_PT105H.grib2 2026-04-11 16:45 787K
20260411T12Z_MSC_GDPS_GeopotentialHeight_IsbL-1015_LatLon0.15_PT105H.grib2 2026-04-11 16:45 810K
20260411T12Z_MSC_GDPS_Humidex_Sfc_LatLon0.15_PT105H.grib2 2026-04-11 16:45 5.3M
20260411T12Z_MSC_GDPS_IcePellets-Accum1h_Sfc_LatLon0.15_PT105H.grib2 2026-04-11 16:45 10K
20260411T12Z_MSC_GDPS_IcePellets-Accum3h_Sfc_LatLon0.15_PT105H.grib2 2026-04-11 16:45 12K
20260411T12Z_MSC_GDPS_IcePellets-Accum_Sfc_LatLon0.15_PT105H.grib2 2026-04-11 16:45 113K
20260411T12Z_MSC_GDPS_KIndex_Sfc_LatLon0.15_PT105H.grib2 2026-04-11 16:45 6.5M
20260411T12Z_MSC_GDPS_LatentHeatNetFlux_Sfc_LatLon0.15_PT105H.grib2 2026-04-11 16:45 642K
20260411T12Z_MSC_GDPS_LiftedIndex-MU-VT_IsbL-0500_LatLon0.15_PT105H.grib2 2026-04-11 16:45 5.4M
20260411T12Z_MSC_GDPS_NetLongwaveRadiationFlux-Accum_Sfc_LatLon0.15_PT105H.grib2 2026-04-11 16:45 1.0M
20260411T12Z_MSC_GDPS_NetShortwaveRadiationFlux-Accum_Sfc_LatLon0.15_PT105H.grib2 2026-04-11 16:45 965K
20260411T12Z_MSC_GDPS_O3MixingRatio_LatLon0.15_PT105H.grib2 2026-04-11 17:06 2.3M
20260411T12Z_MSC_GDPS_O3_EAtm_LatLon0.15_PT105H.grib2 2026-04-11 17:06 2.1M
20260411T12Z_MSC_GDPS_PlanetaryBoundaryLayerHeight_Sfc_LatLon0.15_PT105H.grib2 2026-04-11 16:45 2.4M
20260411T12Z_MSC_GDPS_Precip-Accum1h_Sfc_LatLon0.15_PT105H.grib2 2026-04-11 16:45 3.2M
20260411T12Z_MSC_GDPS_Precip-Accum3h_Sfc_LatLon0.15_PT105H.grib2 2026-04-11 16:45 3.5M
20260411T12Z_MSC_GDPS_Precip-Accum_Sfc_LatLon0.15_PT105H.grib2 2026-04-11 16:45 5.0M
20260411T12Z_MSC_GDPS_PrecipRate_Sfc_LatLon0.15_PT105H.grib2 2026-04-11 16:45 2.9M
20260411T12Z_MSC_GDPS_PrecipType-Instant_Sfc_LatLon0.15_PT105H.grib2 2026-04-11 16:45 1.5M
20260411T12Z_MSC_GDPS_Pressure_MSL_LatLon0.15_PT105H.grib2 2026-04-11 16:45 830K
20260411T12Z_MSC_GDPS_Pressure_PVU-1.5_LatLon0.15_PT105H.grib2 2026-04-11 16:45 5.8M
20260411T12Z_MSC_GDPS_Pressure_PVU-1_LatLon0.15_PT105H.grib2 2026-04-11 16:45 6.0M
20260411T12Z_MSC_GDPS_Pressure_PVU-2_LatLon0.15_PT105H.grib2 2026-04-11 16:45 6.0M
20260411T12Z_MSC_GDPS_Pressure_Sfc_LatLon0.15_PT105H.grib2 2026-04-11 16:45 1.1M
20260411T12Z_MSC_GDPS_RadiativeTemp_Sfc_LatLon0.15_PT105H.grib2 2026-04-11 16:45 665K
20260411T12Z_MSC_GDPS_Rain-Accum1h_Sfc_LatLon0.15_PT105H.grib2 2026-04-11 16:45 1.6M
20260411T12Z_MSC_GDPS_Rain-Accum3h_Sfc_LatLon0.15_PT105H.grib2 2026-04-11 16:45 1.8M
20260411T12Z_MSC_GDPS_Rain-Accum_Sfc_LatLon0.15_PT105H.grib2 2026-04-11 16:45 3.7M
20260411T12Z_MSC_GDPS_RelativeHumidity_AGL-2m_LatLon0.15_PT105H.grib2 2026-04-11 16:45 1.0M
20260411T12Z_MSC_GDPS_RelativeHumidity_IsbL-0010_LatLon0.15_PT105H.grib2 2026-04-11 16:45 248K
20260411T12Z_MSC_GDPS_RelativeHumidity_IsbL-0020_LatLon0.15_PT105H.grib2 2026-04-11 16:45 373K
20260411T12Z_MSC_GDPS_RelativeHumidity_IsbL-0030_LatLon0.15_PT105H.grib2 2026-04-11 16:45 379K
20260411T12Z_MSC_GDPS_RelativeHumidity_IsbL-0050_LatLon0.15_PT105H.grib2 2026-04-11 16:45 324K
20260411T12Z_MSC_GDPS_RelativeHumidity_IsbL-0100_LatLon0.15_PT105H.grib2 2026-04-11 16:45 493K
20260411T12Z_MSC_GDPS_RelativeHumidity_IsbL-0150_LatLon0.15_PT105H.grib2 2026-04-11 16:45 646K
20260411T12Z_MSC_GDPS_RelativeHumidity_IsbL-0175_LatLon0.15_PT105H.grib2 2026-04-11 16:45 776K
20260411T12Z_MSC_GDPS_RelativeHumidity_IsbL-0200_LatLon0.15_PT105H.grib2 2026-04-11 16:45 689K
20260411T12Z_MSC_GDPS_RelativeHumidity_IsbL-0225_LatLon0.15_PT105H.grib2 2026-04-11 16:45 784K
20260411T12Z_MSC_GDPS_RelativeHumidity_IsbL-0250_LatLon0.15_PT105H.grib2 2026-04-11 16:45 865K
20260411T12Z_MSC_GDPS_RelativeHumidity_IsbL-0275_LatLon0.15_PT105H.grib2 2026-04-11 16:45 892K
20260411T12Z_MSC_GDPS_RelativeHumidity_IsbL-0300_LatLon0.15_PT105H.grib2 2026-04-11 16:45 938K
20260411T12Z_MSC_GDPS_RelativeHumidity_IsbL-0350_LatLon0.15_PT105H.grib2 2026-04-11 16:45 963K
20260411T12Z_MSC_GDPS_RelativeHumidity_IsbL-0400_LatLon0.15_PT105H.grib2 2026-04-11 16:45 1.0M
20260411T12Z_MSC_GDPS_RelativeHumidity_IsbL-0450_LatLon0.15_PT105H.grib2 2026-04-11 16:45 1.0M
20260411T12Z_MSC_GDPS_RelativeHumidity_IsbL-0500_LatLon0.15_PT105H.grib2 2026-04-11 16:45 1.0M
20260411T12Z_MSC_GDPS_RelativeHumidity_IsbL-0550_LatLon0.15_PT105H.grib2 2026-04-11 16:45 1.0M
20260411T12Z_MSC_GDPS_RelativeHumidity_IsbL-0600_LatLon0.15_PT105H.grib2 2026-04-11 16:45 1.1M
20260411T12Z_MSC_GDPS_RelativeHumidity_IsbL-0650_LatLon0.15_PT105H.grib2 2026-04-11 16:45 1.1M
20260411T12Z_MSC_GDPS_RelativeHumidity_IsbL-0700_LatLon0.15_PT105H.grib2 2026-04-11 16:45 1.1M
20260411T12Z_MSC_GDPS_RelativeHumidity_IsbL-0750_LatLon0.15_PT105H.grib2 2026-04-11 16:45 1.1M
20260411T12Z_MSC_GDPS_RelativeHumidity_IsbL-0800_LatLon0.15_PT105H.grib2 2026-04-11 16:45 1.3M
20260411T12Z_MSC_GDPS_RelativeHumidity_IsbL-0850_LatLon0.15_PT105H.grib2 2026-04-11 16:45 1.3M
20260411T12Z_MSC_GDPS_RelativeHumidity_IsbL-0875_LatLon0.15_PT105H.grib2 2026-04-11 16:45 1.2M
20260411T12Z_MSC_GDPS_RelativeHumidity_IsbL-0900_LatLon0.15_PT105H.grib2 2026-04-11 16:45 1.2M
20260411T12Z_MSC_GDPS_RelativeHumidity_IsbL-0925_LatLon0.15_PT105H.grib2 2026-04-11 16:45 1.2M
20260411T12Z_MSC_GDPS_RelativeHumidity_IsbL-0950_LatLon0.15_PT105H.grib2 2026-04-11 16:45 1.2M
20260411T12Z_MSC_GDPS_RelativeHumidity_IsbL-0970_LatLon0.15_PT105H.grib2 2026-04-11 16:45 1.2M
20260411T12Z_MSC_GDPS_RelativeHumidity_IsbL-0985_LatLon0.15_PT105H.grib2 2026-04-11 16:45 1.2M
20260411T12Z_MSC_GDPS_RelativeHumidity_IsbL-1000_LatLon0.15_PT105H.grib2 2026-04-11 16:45 1.1M
20260411T12Z_MSC_GDPS_RelativeHumidity_IsbL-1015_LatLon0.15_PT105H.grib2 2026-04-11 16:45 1.1M
20260411T12Z_MSC_GDPS_RelativeVorticity_IsbL-0200_LatLon0.15_PT105H.grib2 2026-04-11 16:45 1.2M
20260411T12Z_MSC_GDPS_RelativeVorticity_IsbL-0250_LatLon0.15_PT105H.grib2 2026-04-11 16:45 1.3M
20260411T12Z_MSC_GDPS_RelativeVorticity_IsbL-0500_LatLon0.15_PT105H.grib2 2026-04-11 16:45 1.4M
20260411T12Z_MSC_GDPS_RelativeVorticity_IsbL-0700_LatLon0.15_PT105H.grib2 2026-04-11 16:45 1.3M
20260411T12Z_MSC_GDPS_RelativeVorticity_IsbL-0850_LatLon0.15_PT105H.grib2 2026-04-11 16:45 1.6M
20260411T12Z_MSC_GDPS_Runoff-Accum_Sfc_LatLon0.15_PT105H.grib2 2026-04-11 16:45 107K
20260411T12Z_MSC_GDPS_SensibleHeatNetFlux_Sfc_LatLon0.15_PT105H.grib2 2026-04-11 16:45 591K
20260411T12Z_MSC_GDPS_ShowalterIndex_IsbL-0500_LatLon0.15_PT105H.grib2 2026-04-11 16:45 6.2M
20260411T12Z_MSC_GDPS_Snow-Accum1h_Sfc_LatLon0.15_PT105H.grib2 2026-04-11 16:45 1.0M
20260411T12Z_MSC_GDPS_Snow-Accum3h_Sfc_LatLon0.15_PT105H.grib2 2026-04-11 16:45 1.1M
20260411T12Z_MSC_GDPS_Snow-Accum_Sfc_LatLon0.15_PT105H.grib2 2026-04-11 16:45 1.9M
20260411T12Z_MSC_GDPS_SnowDensity_Sfc_LatLon0.15_PT105H.grib2 2026-04-11 16:45 270K
20260411T12Z_MSC_GDPS_SnowDepth_Sfc_LatLon0.15_PT105H.grib2 2026-04-11 16:45 1.8M
20260411T12Z_MSC_GDPS_SoilTemp_DBS-0to10cm_LatLon0.15_PT105H.grib2 2026-04-11 16:45 511K
20260411T12Z_MSC_GDPS_SoilTemp_Sfc_LatLon0.15_PT105H.grib2 2026-04-11 16:45 579K
20260411T12Z_MSC_GDPS_SoilVolumetricIceContent_Sfc_LatLon0.15_PT105H.grib2 2026-04-11 16:45 225K
20260411T12Z_MSC_GDPS_SoilVolumetricWaterContent_DBS-0to10cm_LatLon0.15_PT105H.grib2 2026-04-11 16:45 551K
20260411T12Z_MSC_GDPS_SoilVolumetricWaterContent_DBS-0to1cm_LatLon0.15_PT105H.grib2 2026-04-11 16:45 651K
20260411T12Z_MSC_GDPS_SpecificHumidity_AGL-120m_LatLon0.15_PT105H.grib2 2026-04-11 16:45 1.1M
20260411T12Z_MSC_GDPS_SpecificHumidity_AGL-2m_LatLon0.15_PT105H.grib2 2026-04-11 16:45 1.2M
20260411T12Z_MSC_GDPS_SpecificHumidity_AGL-40m_LatLon0.15_PT105H.grib2 2026-04-11 16:45 1.1M
20260411T12Z_MSC_GDPS_SpecificHumidity_AGL-80m_LatLon0.15_PT105H.grib2 2026-04-11 16:45 1.1M
20260411T12Z_MSC_GDPS_SpecificHumidity_IsbL-0001_LatLon0.15_PT105H.grib2 2026-04-11 16:45 1.1M
20260411T12Z_MSC_GDPS_SpecificHumidity_IsbL-0005_LatLon0.15_PT105H.grib2 2026-04-11 16:45 1.1M
20260411T12Z_MSC_GDPS_SpecificHumidity_IsbL-0010_LatLon0.15_PT105H.grib2 2026-04-11 16:45 1.2M
20260411T12Z_MSC_GDPS_SpecificHumidity_IsbL-0020_LatLon0.15_PT105H.grib2 2026-04-11 16:45 1.3M
20260411T12Z_MSC_GDPS_SpecificHumidity_IsbL-0030_LatLon0.15_PT105H.grib2 2026-04-11 16:45 1.3M
20260411T12Z_MSC_GDPS_SpecificHumidity_IsbL-0050_LatLon0.15_PT105H.grib2 2026-04-11 16:45 1.3M
20260411T12Z_MSC_GDPS_SpecificHumidity_IsbL-0100_LatLon0.15_PT105H.grib2 2026-04-11 16:45 1.3M
20260411T12Z_MSC_GDPS_SpecificHumidity_IsbL-0150_LatLon0.15_PT105H.grib2 2026-04-11 16:45 1.3M
20260411T12Z_MSC_GDPS_SpecificHumidity_IsbL-0175_LatLon0.15_PT105H.grib2 2026-04-11 16:45 1.0M
20260411T12Z_MSC_GDPS_SpecificHumidity_IsbL-0200_LatLon0.15_PT105H.grib2 2026-04-11 16:45 1.0M
20260411T12Z_MSC_GDPS_SpecificHumidity_IsbL-0225_LatLon0.15_PT105H.grib2 2026-04-11 16:45 1.2M
20260411T12Z_MSC_GDPS_SpecificHumidity_IsbL-0250_LatLon0.15_PT105H.grib2 2026-04-11 16:45 1.2M
20260411T12Z_MSC_GDPS_SpecificHumidity_IsbL-0275_LatLon0.15_PT105H.grib2 2026-04-11 16:45 1.1M
20260411T12Z_MSC_GDPS_SpecificHumidity_IsbL-0300_LatLon0.15_PT105H.grib2 2026-04-11 16:45 1.2M
20260411T12Z_MSC_GDPS_SpecificHumidity_IsbL-0350_LatLon0.15_PT105H.grib2 2026-04-11 16:45 1.2M
20260411T12Z_MSC_GDPS_SpecificHumidity_IsbL-0400_LatLon0.15_PT105H.grib2 2026-04-11 16:45 1.4M
20260411T12Z_MSC_GDPS_SpecificHumidity_IsbL-0450_LatLon0.15_PT105H.grib2 2026-04-11 16:45 1.3M
20260411T12Z_MSC_GDPS_SpecificHumidity_IsbL-0500_LatLon0.15_PT105H.grib2 2026-04-11 16:45 1.5M
20260411T12Z_MSC_GDPS_SpecificHumidity_IsbL-0550_LatLon0.15_PT105H.grib2 2026-04-11 16:45 1.3M
20260411T12Z_MSC_GDPS_SpecificHumidity_IsbL-0600_LatLon0.15_PT105H.grib2 2026-04-11 16:45 1.4M
20260411T12Z_MSC_GDPS_SpecificHumidity_IsbL-0650_LatLon0.15_PT105H.grib2 2026-04-11 16:45 1.5M
20260411T12Z_MSC_GDPS_SpecificHumidity_IsbL-0700_LatLon0.15_PT105H.grib2 2026-04-11 16:45 1.6M
20260411T12Z_MSC_GDPS_SpecificHumidity_IsbL-0750_LatLon0.15_PT105H.grib2 2026-04-11 16:45 1.7M
20260411T12Z_MSC_GDPS_SpecificHumidity_IsbL-0800_LatLon0.15_PT105H.grib2 2026-04-11 16:45 1.8M
20260411T12Z_MSC_GDPS_SpecificHumidity_IsbL-0850_LatLon0.15_PT105H.grib2 2026-04-11 16:45 1.9M
20260411T12Z_MSC_GDPS_SpecificHumidity_IsbL-0875_LatLon0.15_PT105H.grib2 2026-04-11 16:45 1.9M
20260411T12Z_MSC_GDPS_SpecificHumidity_IsbL-0900_LatLon0.15_PT105H.grib2 2026-04-11 16:45 1.9M
20260411T12Z_MSC_GDPS_SpecificHumidity_IsbL-0925_LatLon0.15_PT105H.grib2 2026-04-11 16:45 1.6M
20260411T12Z_MSC_GDPS_SpecificHumidity_IsbL-0950_LatLon0.15_PT105H.grib2 2026-04-11 16:45 1.5M
20260411T12Z_MSC_GDPS_SpecificHumidity_IsbL-0970_LatLon0.15_PT105H.grib2 2026-04-11 16:45 1.5M
20260411T12Z_MSC_GDPS_SpecificHumidity_IsbL-0985_LatLon0.15_PT105H.grib2 2026-04-11 16:45 1.5M
20260411T12Z_MSC_GDPS_SpecificHumidity_IsbL-1000_LatLon0.15_PT105H.grib2 2026-04-11 16:45 1.5M
20260411T12Z_MSC_GDPS_SpecificHumidity_IsbL-1015_LatLon0.15_PT105H.grib2 2026-04-11 16:45 1.4M
20260411T12Z_MSC_GDPS_SpecificHumidity_Sfc_LatLon0.15_PT105H.grib2 2026-04-11 16:45 652K
20260411T12Z_MSC_GDPS_Thickness_IsbL-0850to0700_LatLon0.15_PT105H.grib2 2026-04-11 16:45 466K
20260411T12Z_MSC_GDPS_Thickness_IsbL-1000to0500_LatLon0.15_PT105H.grib2 2026-04-11 16:45 373K
20260411T12Z_MSC_GDPS_Thickness_IsbL-1000to0850_LatLon0.15_PT105H.grib2 2026-04-11 16:45 490K
20260411T12Z_MSC_GDPS_TotalCloudCover_Sfc_LatLon0.15_PT105H.grib2 2026-04-11 16:45 825K
20260411T12Z_MSC_GDPS_TotalTotalsIndex_Sfc_LatLon0.15_PT105H.grib2 2026-04-11 16:45 6.2M
20260411T12Z_MSC_GDPS_UVIndex-ClearSky_Sfc_LatLon0.15_PT105H.grib2 2026-04-11 17:06 1.0M
20260411T12Z_MSC_GDPS_UVIndex_Sfc_LatLon0.15_PT105H.grib2 2026-04-11 17:06 1.5M
20260411T12Z_MSC_GDPS_UpwardLongwaveRadiationFlux_NTAtm_LatLon0.15_PT105H.grib2 2026-04-11 16:45 832K
20260411T12Z_MSC_GDPS_VerticalVelocity_IsbL-0200_LatLon0.15_PT105H.grib2 2026-04-11 16:45 926K
20260411T12Z_MSC_GDPS_VerticalVelocity_IsbL-0250_LatLon0.15_PT105H.grib2 2026-04-11 16:45 1.0M
20260411T12Z_MSC_GDPS_VerticalVelocity_IsbL-0500_LatLon0.15_PT105H.grib2 2026-04-11 16:45 1.0M
20260411T12Z_MSC_GDPS_VerticalVelocity_IsbL-0600_LatLon0.15_PT105H.grib2 2026-04-11 16:45 1.1M
20260411T12Z_MSC_GDPS_VerticalVelocity_IsbL-0700_LatLon0.15_PT105H.grib2 2026-04-11 16:45 1.1M
20260411T12Z_MSC_GDPS_VerticalVelocity_IsbL-0850_LatLon0.15_PT105H.grib2 2026-04-11 16:45 1.6M
20260411T12Z_MSC_GDPS_WindChill_Sfc_LatLon0.15_PT105H.grib2 2026-04-11 16:45 5.4M
20260411T12Z_MSC_GDPS_WindDir_AGL-10m_LatLon0.15_PT105H.grib2 2026-04-11 16:45 1.4M
20260411T12Z_MSC_GDPS_WindDir_AGL-120m_LatLon0.15_PT105H.grib2 2026-04-11 16:45 1.4M
20260411T12Z_MSC_GDPS_WindDir_AGL-40m_LatLon0.15_PT105H.grib2 2026-04-11 16:45 1.4M
20260411T12Z_MSC_GDPS_WindDir_AGL-80m_LatLon0.15_PT105H.grib2 2026-04-11 16:45 1.4M
20260411T12Z_MSC_GDPS_WindDir_IsbL-0001_LatLon0.15_PT105H.grib2 2026-04-11 16:45 630K
20260411T12Z_MSC_GDPS_WindDir_IsbL-0005_LatLon0.15_PT105H.grib2 2026-04-11 16:45 808K
20260411T12Z_MSC_GDPS_WindDir_IsbL-0010_LatLon0.15_PT105H.grib2 2026-04-11 16:45 849K
20260411T12Z_MSC_GDPS_WindDir_IsbL-0020_LatLon0.15_PT105H.grib2 2026-04-11 16:45 912K
20260411T12Z_MSC_GDPS_WindDir_IsbL-0030_LatLon0.15_PT105H.grib2 2026-04-11 16:45 884K
20260411T12Z_MSC_GDPS_WindDir_IsbL-0050_LatLon0.15_PT105H.grib2 2026-04-11 16:45 949K
20260411T12Z_MSC_GDPS_WindDir_IsbL-0100_LatLon0.15_PT105H.grib2 2026-04-11 16:45 1.0M
20260411T12Z_MSC_GDPS_WindDir_IsbL-0150_LatLon0.15_PT105H.grib2 2026-04-11 16:45 1.0M
20260411T12Z_MSC_GDPS_WindDir_IsbL-0175_LatLon0.15_PT105H.grib2 2026-04-11 16:45 1.0M
20260411T12Z_MSC_GDPS_WindDir_IsbL-0200_LatLon0.15_PT105H.grib2 2026-04-11 16:45 1.1M
20260411T12Z_MSC_GDPS_WindDir_IsbL-0225_LatLon0.15_PT105H.grib2 2026-04-11 16:45 1.1M
20260411T12Z_MSC_GDPS_WindDir_IsbL-0250_LatLon0.15_PT105H.grib2 2026-04-11 16:45 1.1M
20260411T12Z_MSC_GDPS_WindDir_IsbL-0275_LatLon0.15_PT105H.grib2 2026-04-11 16:45 1.2M
20260411T12Z_MSC_GDPS_WindDir_IsbL-0300_LatLon0.15_PT105H.grib2 2026-04-11 16:45 1.2M
20260411T12Z_MSC_GDPS_WindDir_IsbL-0350_LatLon0.15_PT105H.grib2 2026-04-11 16:45 1.2M
20260411T12Z_MSC_GDPS_WindDir_IsbL-0400_LatLon0.15_PT105H.grib2 2026-04-11 16:45 1.3M
20260411T12Z_MSC_GDPS_WindDir_IsbL-0450_LatLon0.15_PT105H.grib2 2026-04-11 16:45 1.3M
20260411T12Z_MSC_GDPS_WindDir_IsbL-0500_LatLon0.15_PT105H.grib2 2026-04-11 16:45 1.3M
20260411T12Z_MSC_GDPS_WindDir_IsbL-0550_LatLon0.15_PT105H.grib2 2026-04-11 16:45 1.4M
20260411T12Z_MSC_GDPS_WindDir_IsbL-0600_LatLon0.15_PT105H.grib2 2026-04-11 16:45 1.5M
20260411T12Z_MSC_GDPS_WindDir_IsbL-0650_LatLon0.15_PT105H.grib2 2026-04-11 16:45 1.5M
20260411T12Z_MSC_GDPS_WindDir_IsbL-0700_LatLon0.15_PT105H.grib2 2026-04-11 16:45 1.6M
20260411T12Z_MSC_GDPS_WindDir_IsbL-0750_LatLon0.15_PT105H.grib2 2026-04-11 16:45 1.7M
20260411T12Z_MSC_GDPS_WindDir_IsbL-0800_LatLon0.15_PT105H.grib2 2026-04-11 16:45 1.8M
20260411T12Z_MSC_GDPS_WindDir_IsbL-0850_LatLon0.15_PT105H.grib2 2026-04-11 16:45 1.9M
20260411T12Z_MSC_GDPS_WindDir_IsbL-0875_LatLon0.15_PT105H.grib2 2026-04-11 16:45 2.0M
20260411T12Z_MSC_GDPS_WindDir_IsbL-0900_LatLon0.15_PT105H.grib2 2026-04-11 16:45 2.0M
20260411T12Z_MSC_GDPS_WindDir_IsbL-0925_LatLon0.15_PT105H.grib2 2026-04-11 16:45 2.0M
20260411T12Z_MSC_GDPS_WindDir_IsbL-0950_LatLon0.15_PT105H.grib2 2026-04-11 16:45 2.0M
20260411T12Z_MSC_GDPS_WindDir_IsbL-0970_LatLon0.15_PT105H.grib2 2026-04-11 16:45 2.0M
20260411T12Z_MSC_GDPS_WindDir_IsbL-0985_LatLon0.15_PT105H.grib2 2026-04-11 16:45 2.1M
20260411T12Z_MSC_GDPS_WindDir_IsbL-1000_LatLon0.15_PT105H.grib2 2026-04-11 16:45 2.1M
20260411T12Z_MSC_GDPS_WindDir_IsbL-1015_LatLon0.15_PT105H.grib2 2026-04-11 16:45 2.1M
20260411T12Z_MSC_GDPS_WindGust-Max_AGL-10m_LatLon0.15_PT105H.grib2 2026-04-11 16:45 2.2M
20260411T12Z_MSC_GDPS_WindGust-Min_AGL-10m_LatLon0.15_PT105H.grib2 2026-04-11 16:45 2.2M
20260411T12Z_MSC_GDPS_WindGust_AGL-10m_LatLon0.15_PT105H.grib2 2026-04-11 16:45 2.2M
20260411T12Z_MSC_GDPS_WindSpeed_AGL-10m_LatLon0.15_PT105H.grib2 2026-04-11 16:45 1.1M
20260411T12Z_MSC_GDPS_WindSpeed_AGL-120m_LatLon0.15_PT105H.grib2 2026-04-11 16:45 1.3M
20260411T12Z_MSC_GDPS_WindSpeed_AGL-40m_LatLon0.15_PT105H.grib2 2026-04-11 16:45 1.2M
20260411T12Z_MSC_GDPS_WindSpeed_AGL-80m_LatLon0.15_PT105H.grib2 2026-04-11 16:45 1.3M
20260411T12Z_MSC_GDPS_WindSpeed_IsbL-0001_LatLon0.15_PT105H.grib2 2026-04-11 16:45 636K
20260411T12Z_MSC_GDPS_WindSpeed_IsbL-0005_LatLon0.15_PT105H.grib2 2026-04-11 16:45 684K
20260411T12Z_MSC_GDPS_WindSpeed_IsbL-0010_LatLon0.15_PT105H.grib2 2026-04-11 16:45 622K
20260411T12Z_MSC_GDPS_WindSpeed_IsbL-0020_LatLon0.15_PT105H.grib2 2026-04-11 16:45 669K
20260411T12Z_MSC_GDPS_WindSpeed_IsbL-0030_LatLon0.15_PT105H.grib2 2026-04-11 16:45 854K
20260411T12Z_MSC_GDPS_WindSpeed_IsbL-0050_LatLon0.15_PT105H.grib2 2026-04-11 16:45 911K
20260411T12Z_MSC_GDPS_WindSpeed_IsbL-0100_LatLon0.15_PT105H.grib2 2026-04-11 16:45 1.1M
20260411T12Z_MSC_GDPS_WindSpeed_IsbL-0150_LatLon0.15_PT105H.grib2 2026-04-11 16:45 1.0M
20260411T12Z_MSC_GDPS_WindSpeed_IsbL-0175_LatLon0.15_PT105H.grib2 2026-04-11 16:45 1.0M
20260411T12Z_MSC_GDPS_WindSpeed_IsbL-0200_LatLon0.15_PT105H.grib2 2026-04-11 16:45 1.0M
20260411T12Z_MSC_GDPS_WindSpeed_IsbL-0225_LatLon0.15_PT105H.grib2 2026-04-11 16:45 1.1M
20260411T12Z_MSC_GDPS_WindSpeed_IsbL-0250_LatLon0.15_PT105H.grib2 2026-04-11 16:45 1.1M
20260411T12Z_MSC_GDPS_WindSpeed_IsbL-0275_LatLon0.15_PT105H.grib2 2026-04-11 16:45 1.1M
20260411T12Z_MSC_GDPS_WindSpeed_IsbL-0300_LatLon0.15_PT105H.grib2 2026-04-11 16:45 1.1M
20260411T12Z_MSC_GDPS_WindSpeed_IsbL-0350_LatLon0.15_PT105H.grib2 2026-04-11 16:45 1.1M
20260411T12Z_MSC_GDPS_WindSpeed_IsbL-0400_LatLon0.15_PT105H.grib2 2026-04-11 16:45 1.1M
20260411T12Z_MSC_GDPS_WindSpeed_IsbL-0450_LatLon0.15_PT105H.grib2 2026-04-11 16:45 1.1M
20260411T12Z_MSC_GDPS_WindSpeed_IsbL-0500_LatLon0.15_PT105H.grib2 2026-04-11 16:45 1.1M
20260411T12Z_MSC_GDPS_WindSpeed_IsbL-0550_LatLon0.15_PT105H.grib2 2026-04-11 16:45 1.1M
20260411T12Z_MSC_GDPS_WindSpeed_IsbL-0600_LatLon0.15_PT105H.grib2 2026-04-11 16:45 1.4M
20260411T12Z_MSC_GDPS_WindSpeed_IsbL-0650_LatLon0.15_PT105H.grib2 2026-04-11 16:45 1.4M
20260411T12Z_MSC_GDPS_WindSpeed_IsbL-0700_LatLon0.15_PT105H.grib2 2026-04-11 16:45 1.5M
20260411T12Z_MSC_GDPS_WindSpeed_IsbL-0750_LatLon0.15_PT105H.grib2 2026-04-11 16:45 1.5M
20260411T12Z_MSC_GDPS_WindSpeed_IsbL-0800_LatLon0.15_PT105H.grib2 2026-04-11 16:45 1.6M
20260411T12Z_MSC_GDPS_WindSpeed_IsbL-0850_LatLon0.15_PT105H.grib2 2026-04-11 16:45 1.7M
20260411T12Z_MSC_GDPS_WindSpeed_IsbL-0875_LatLon0.15_PT105H.grib2 2026-04-11 16:45 1.8M
20260411T12Z_MSC_GDPS_WindSpeed_IsbL-0900_LatLon0.15_PT105H.grib2 2026-04-11 16:45 1.8M
20260411T12Z_MSC_GDPS_WindSpeed_IsbL-0925_LatLon0.15_PT105H.grib2 2026-04-11 16:45 1.8M
20260411T12Z_MSC_GDPS_WindSpeed_IsbL-0950_LatLon0.15_PT105H.grib2 2026-04-11 16:45 1.9M
20260411T12Z_MSC_GDPS_WindSpeed_IsbL-0970_LatLon0.15_PT105H.grib2 2026-04-11 16:45 1.9M
20260411T12Z_MSC_GDPS_WindSpeed_IsbL-0985_LatLon0.15_PT105H.grib2 2026-04-11 16:45 1.9M
20260411T12Z_MSC_GDPS_WindSpeed_IsbL-1000_LatLon0.15_PT105H.grib2 2026-04-11 16:45 1.9M
20260411T12Z_MSC_GDPS_WindSpeed_IsbL-1015_LatLon0.15_PT105H.grib2 2026-04-11 16:45 1.8M
20260411T12Z_MSC_GDPS_WindU_AGL-10m_LatLon0.15_PT105H.grib2 2026-04-11 16:45 1.3M
20260411T12Z_MSC_GDPS_WindU_AGL-120m_LatLon0.15_PT105H.grib2 2026-04-11 16:45 1.0M
20260411T12Z_MSC_GDPS_WindU_AGL-40m_LatLon0.15_PT105H.grib2 2026-04-11 16:45 1.0M
20260411T12Z_MSC_GDPS_WindU_AGL-80m_LatLon0.15_PT105H.grib2 2026-04-11 16:45 1.0M
20260411T12Z_MSC_GDPS_WindU_IsbL-0001_LatLon0.15_PT105H.grib2 2026-04-11 16:45 495K
20260411T12Z_MSC_GDPS_WindU_IsbL-0005_LatLon0.15_PT105H.grib2 2026-04-11 16:45 681K
20260411T12Z_MSC_GDPS_WindU_IsbL-0010_LatLon0.15_PT105H.grib2 2026-04-11 16:45 697K
20260411T12Z_MSC_GDPS_WindU_IsbL-0020_LatLon0.15_PT105H.grib2 2026-04-11 16:45 734K
20260411T12Z_MSC_GDPS_WindU_IsbL-0030_LatLon0.15_PT105H.grib2 2026-04-11 16:45 734K
20260411T12Z_MSC_GDPS_WindU_IsbL-0050_LatLon0.15_PT105H.grib2 2026-04-11 16:45 701K
20260411T12Z_MSC_GDPS_WindU_IsbL-0100_LatLon0.15_PT105H.grib2 2026-04-11 16:45 926K
20260411T12Z_MSC_GDPS_WindU_IsbL-0150_LatLon0.15_PT105H.grib2 2026-04-11 16:45 1.0M
20260411T12Z_MSC_GDPS_WindU_IsbL-0175_LatLon0.15_PT105H.grib2 2026-04-11 16:45 1.0M
20260411T12Z_MSC_GDPS_WindU_IsbL-0200_LatLon0.15_PT105H.grib2 2026-04-11 16:45 841K
20260411T12Z_MSC_GDPS_WindU_IsbL-0225_LatLon0.15_PT105H.grib2 2026-04-11 16:45 852K
20260411T12Z_MSC_GDPS_WindU_IsbL-0250_LatLon0.15_PT105H.grib2 2026-04-11 16:45 856K
20260411T12Z_MSC_GDPS_WindU_IsbL-0275_LatLon0.15_PT105H.grib2 2026-04-11 16:45 885K
20260411T12Z_MSC_GDPS_WindU_IsbL-0300_LatLon0.15_PT105H.grib2 2026-04-11 16:45 876K
20260411T12Z_MSC_GDPS_WindU_IsbL-0350_LatLon0.15_PT105H.grib2 2026-04-11 16:45 889K
20260411T12Z_MSC_GDPS_WindU_IsbL-0400_LatLon0.15_PT105H.grib2 2026-04-11 16:45 890K
20260411T12Z_MSC_GDPS_WindU_IsbL-0450_LatLon0.15_PT105H.grib2 2026-04-11 16:45 1.1M
20260411T12Z_MSC_GDPS_WindU_IsbL-0500_LatLon0.15_PT105H.grib2 2026-04-11 16:45 1.1M
20260411T12Z_MSC_GDPS_WindU_IsbL-0550_LatLon0.15_PT105H.grib2 2026-04-11 16:45 1.1M
20260411T12Z_MSC_GDPS_WindU_IsbL-0600_LatLon0.15_PT105H.grib2 2026-04-11 16:45 1.1M
20260411T12Z_MSC_GDPS_WindU_IsbL-0650_LatLon0.15_PT105H.grib2 2026-04-11 16:45 1.2M
20260411T12Z_MSC_GDPS_WindU_IsbL-0700_LatLon0.15_PT105H.grib2 2026-04-11 16:45 1.2M
20260411T12Z_MSC_GDPS_WindU_IsbL-0750_LatLon0.15_PT105H.grib2 2026-04-11 16:45 1.3M
20260411T12Z_MSC_GDPS_WindU_IsbL-0800_LatLon0.15_PT105H.grib2 2026-04-11 16:45 1.3M
20260411T12Z_MSC_GDPS_WindU_IsbL-0850_LatLon0.15_PT105H.grib2 2026-04-11 16:45 1.4M
20260411T12Z_MSC_GDPS_WindU_IsbL-0875_LatLon0.15_PT105H.grib2 2026-04-11 16:45 1.5M
20260411T12Z_MSC_GDPS_WindU_IsbL-0900_LatLon0.15_PT105H.grib2 2026-04-11 16:45 1.5M
20260411T12Z_MSC_GDPS_WindU_IsbL-0925_LatLon0.15_PT105H.grib2 2026-04-11 16:45 1.5M
20260411T12Z_MSC_GDPS_WindU_IsbL-0950_LatLon0.15_PT105H.grib2 2026-04-11 16:45 1.4M
20260411T12Z_MSC_GDPS_WindU_IsbL-0970_LatLon0.15_PT105H.grib2 2026-04-11 16:45 1.4M
20260411T12Z_MSC_GDPS_WindU_IsbL-0985_LatLon0.15_PT105H.grib2 2026-04-11 16:45 1.4M
20260411T12Z_MSC_GDPS_WindU_IsbL-1000_LatLon0.15_PT105H.grib2 2026-04-11 16:45 1.4M
20260411T12Z_MSC_GDPS_WindU_IsbL-1015_LatLon0.15_PT105H.grib2 2026-04-11 16:45 1.4M
20260411T12Z_MSC_GDPS_WindV_AGL-10m_LatLon0.15_PT105H.grib2 2026-04-11 16:45 1.3M
20260411T12Z_MSC_GDPS_WindV_AGL-120m_LatLon0.15_PT105H.grib2 2026-04-11 16:45 1.0M
20260411T12Z_MSC_GDPS_WindV_AGL-40m_LatLon0.15_PT105H.grib2 2026-04-11 16:45 1.0M
20260411T12Z_MSC_GDPS_WindV_AGL-80m_LatLon0.15_PT105H.grib2 2026-04-11 16:45 1.0M
20260411T12Z_MSC_GDPS_WindV_IsbL-0001_LatLon0.15_PT105H.grib2 2026-04-11 16:45 544K
20260411T12Z_MSC_GDPS_WindV_IsbL-0005_LatLon0.15_PT105H.grib2 2026-04-11 16:45 770K
20260411T12Z_MSC_GDPS_WindV_IsbL-0010_LatLon0.15_PT105H.grib2 2026-04-11 16:45 802K
20260411T12Z_MSC_GDPS_WindV_IsbL-0020_LatLon0.15_PT105H.grib2 2026-04-11 16:45 856K
20260411T12Z_MSC_GDPS_WindV_IsbL-0030_LatLon0.15_PT105H.grib2 2026-04-11 16:45 932K
20260411T12Z_MSC_GDPS_WindV_IsbL-0050_LatLon0.15_PT105H.grib2 2026-04-11 16:45 906K
20260411T12Z_MSC_GDPS_WindV_IsbL-0100_LatLon0.15_PT105H.grib2 2026-04-11 16:45 1.1M
20260411T12Z_MSC_GDPS_WindV_IsbL-0150_LatLon0.15_PT105H.grib2 2026-04-11 16:45 1.0M
20260411T12Z_MSC_GDPS_WindV_IsbL-0175_LatLon0.15_PT105H.grib2 2026-04-11 16:45 1.0M
20260411T12Z_MSC_GDPS_WindV_IsbL-0200_LatLon0.15_PT105H.grib2 2026-04-11 16:45 837K
20260411T12Z_MSC_GDPS_WindV_IsbL-0225_LatLon0.15_PT105H.grib2 2026-04-11 16:45 904K
20260411T12Z_MSC_GDPS_WindV_IsbL-0250_LatLon0.15_PT105H.grib2 2026-04-11 16:45 907K
20260411T12Z_MSC_GDPS_WindV_IsbL-0275_LatLon0.15_PT105H.grib2 2026-04-11 16:45 932K
20260411T12Z_MSC_GDPS_WindV_IsbL-0300_LatLon0.15_PT105H.grib2 2026-04-11 16:45 924K
20260411T12Z_MSC_GDPS_WindV_IsbL-0350_LatLon0.15_PT105H.grib2 2026-04-11 16:45 878K
20260411T12Z_MSC_GDPS_WindV_IsbL-0400_LatLon0.15_PT105H.grib2 2026-04-11 16:45 876K
20260411T12Z_MSC_GDPS_WindV_IsbL-0450_LatLon0.15_PT105H.grib2 2026-04-11 16:45 1.1M
20260411T12Z_MSC_GDPS_WindV_IsbL-0500_LatLon0.15_PT105H.grib2 2026-04-11 16:45 1.1M
20260411T12Z_MSC_GDPS_WindV_IsbL-0550_LatLon0.15_PT105H.grib2 2026-04-11 16:45 1.1M
20260411T12Z_MSC_GDPS_WindV_IsbL-0600_LatLon0.15_PT105H.grib2 2026-04-11 16:45 1.1M
20260411T12Z_MSC_GDPS_WindV_IsbL-0650_LatLon0.15_PT105H.grib2 2026-04-11 16:45 1.2M
20260411T12Z_MSC_GDPS_WindV_IsbL-0700_LatLon0.15_PT105H.grib2 2026-04-11 16:45 1.2M
20260411T12Z_MSC_GDPS_WindV_IsbL-0750_LatLon0.15_PT105H.grib2 2026-04-11 16:45 1.3M
20260411T12Z_MSC_GDPS_WindV_IsbL-0800_LatLon0.15_PT105H.grib2 2026-04-11 16:45 1.3M
20260411T12Z_MSC_GDPS_WindV_IsbL-0850_LatLon0.15_PT105H.grib2 2026-04-11 16:45 1.4M
20260411T12Z_MSC_GDPS_WindV_IsbL-0875_LatLon0.15_PT105H.grib2 2026-04-11 16:45 1.4M
20260411T12Z_MSC_GDPS_WindV_IsbL-0900_LatLon0.15_PT105H.grib2 2026-04-11 16:45 1.5M
20260411T12Z_MSC_GDPS_WindV_IsbL-0925_LatLon0.15_PT105H.grib2 2026-04-11 16:45 1.5M
20260411T12Z_MSC_GDPS_WindV_IsbL-0950_LatLon0.15_PT105H.grib2 2026-04-11 16:45 1.4M
20260411T12Z_MSC_GDPS_WindV_IsbL-0970_LatLon0.15_PT105H.grib2 2026-04-11 16:45 1.4M
20260411T12Z_MSC_GDPS_WindV_IsbL-0985_LatLon0.15_PT105H.grib2 2026-04-11 16:45 1.4M
20260411T12Z_MSC_GDPS_WindV_IsbL-1000_LatLon0.15_PT105H.grib2 2026-04-11 16:45 1.4M
20260411T12Z_MSC_GDPS_WindV_IsbL-1015_LatLon0.15_PT105H.grib2 2026-04-11 16:45 1.4M